This is the latest recevied weather packets stored in our database for station/object N4ZIQ. If no packets are shown the sender has not sent any weather packets the latest 10 day(s).
| Time | Temp. | Humidity | Pressure | Rain* | Wind** | Luminosity | Snow |
|---|---|---|---|---|---|---|---|
| 1777854945 | 20.56° C | 79% | 1016.7 hPa | 0 mm | - | 0 W/m² | - |
| 1777854651 | 20.56° C | 79% | 1016.8 hPa | 0 mm | - | 0 W/m² | - |
| 1777854346 | 20.56° C | 79% | 1016.7 hPa | 0 mm | - | 0 W/m² | - |
| 1777854047 | 20.56° C | 79% | 1016.7 hPa | 0 mm | - | 0 W/m² | - |
| 1777853751 | 20.56° C | 79% | 1016.7 hPa | 0 mm | - | 0 W/m² | - |
| 1777853445 | 20.56° C | 78% | 1016.5 hPa | 0 mm | - | 0 W/m² | - |
| 1777853147 | 21.11° C | 77% | 1016.6 hPa | 0 mm | - | 0 W/m² | - |
| 1777852888 | 21.11° C | 76% | 1016.5 hPa | 0 mm | - | 0 W/m² | - |
| 1777852544 | 21.11° C | 76% | 1016.4 hPa | 0 mm | - | 7 W/m² | - |
| 1777852249 | 21.11° C | 76% | 1016.4 hPa | 0 mm | - | 12 W/m² | - |
| 1777851956 | 21.67° C | 75% | 1016.3 hPa | 0 mm | - | 19 W/m² | - |
| 1777851645 | 21.67° C | 75% | 1016.3 hPa | 0 mm | - | 30 W/m² | - |
| 1777851346 | 21.67° C | 74% | 1016.4 hPa | 0 mm | - | 37 W/m² | - |
| 1777851049 | 21.67° C | 75% | 1016.3 hPa | 0 mm | - | 46 W/m² | - |
| 1777850749 | 21.67° C | 74% | 1016.3 hPa | 0 mm | - | 42 W/m² | - |
| 1777850444 | 21.67° C | 74% | 1016.3 hPa | 0 mm | - | 49 W/m² | - |
| 1777850152 | 21.67° C | 74% | 1016.4 hPa | 0 mm | - | 51 W/m² | - |
| 1777849848 | 22.22° C | 74% | 1016.3 hPa | 0 mm | - | 53 W/m² | - |
| 1777849544 | 22.22° C | 73% | 1016.4 hPa | 0 mm | - | 51 W/m² | - |
| 1777849257 | 22.22° C | 74% | 1016.4 hPa | 0 mm | - | 54 W/m² | - |
| 1777848945 | 22.22° C | 73% | 1016.5 hPa | 0 mm | - | 51 W/m² | - |
| 1777848646 | 22.22° C | 73% | 1016.3 hPa | 0 mm | - | 51 W/m² | - |
| 1777848353 | 22.22° C | 73% | 1016.3 hPa | 0 mm | - | 65 W/m² | - |
| 1777848047 | 22.22° C | 72% | 1016.4 hPa | 0 mm | - | 76 W/m² | - |
| 1777847748 | 22.22° C | 72% | 1016.4 hPa | 0 mm | - | 70 W/m² | - |
* Rain latest hour (hover to see other rain measurements)
** Current wind speed in m/s (hover to see current wind gust speed)